Location: Bergfeld
(52.0500°N, 11.7833°E)
Time: 04:14:26
(UTC+00:00)

Daily predictions for brighter satellites

Satellite Brightness Start Highest point End
(mag) Time Altitude Azimuth Time Altitude Azimuth Time Altitude Azimuth
Cosmos 2333 Rocket 4.3 01:49:49 23° NE 01:49:49 23° NE 01:51:53 10° NE
ADEOS II 4.5 01:58:58 10° NNE 02:00:07 17° NNE 02:00:07 17° NNE
Cosmos 2322 Rocket 4.3 02:14:37 19° N 02:14:37 19° N 02:16:34 10° NNE
Cosmos 2237 Rocket 3.7 02:21:11 32° ENE 02:21:11 32° ENE 02:24:42 10° NE
ATLAS 2AS CENTAUR R/B 3.9 02:23:04 36° NNW 02:23:33 37° N 02:30:35 10° NE
Cosmos 2219 Rocket 3.6 02:33:02 33° NNE 02:33:02 33° NNE 02:36:06 10° NNE
Nadezhda 3 Rocket 4.5 02:41:13 57° E 02:41:13 57° E 02:47:10 10° NNE
Cosmos 2360 Rocket 4.0 02:44:16 23° N 02:44:16 23° N 02:46:53 10° NNE
COSMOS 2428 3.9 02:46:26 37° NNE 02:46:26 37° NNE 02:49:56 10° NNE
NOSS 3-1 (C) 4.3 02:49:15 57° SSE 02:49:15 57° SSE 02:55:52 10° SE
Cosmos 1943 Rocket 3.5 02:49:40 26° N 02:51:53 35° NE 02:56:55 10° ESE
Lacrosse 5 3.0 02:59:20 41° E 02:59:20 41° E 03:02:42 10° ESE
SL-16 R/B 3.6 02:59:40 29° SE 03:01:15 34° ESE 03:06:19 10° NE
CZ-2C R/B 3.6 03:01:54 10° NNE 03:06:50 41° E 03:08:22 33° SE
Cosmos 1980 3.9 03:09:29 64° NNE 03:09:29 64° NNE 03:14:18 10° NNE
SL-16 R/B 4.2 03:11:43 16° NNW 03:11:43 16° NNW 03:14:34 10° NNE
Cosmos 2369 Rocket 3.4 03:08:02 16° NNW 03:12:11 40° NE 03:17:32 10° ESE
Cosmos 1535 Rocket 4.5 03:07:48 10° N 03:14:08 79° E 03:20:19 10° SSE
USA 215 3.2 03:12:44 10° ENE 03:19:15 72° NNW 03:19:59 66° WNW
NOSS 0 Rocket 3.9 03:24:36 69° NW 03:24:36 69° NW 03:30:42 10° NNE
Meteor 2-1 Rocket 4.2 03:25:18 68° N 03:25:18 68° N 03:30:10 10° NNE
CZ-4C R/B 2.1 03:29:40 76° NW 03:29:40 76° NW 03:36:00 10° NE
Cosmos 2333 Rocket 3.2 03:31:49 33° NNW 03:31:49 33° NNW 03:36:06 10° NNE
USA 229 DEB 4.3 03:35:49 42° SSW 03:35:49 42° SSW 03:41:24 10° SSE
USA 229 4.3 03:35:52 42° SSW 03:35:52 42° SSW 03:41:30 10° SSE
COSMOS 2441 4.5 03:32:54 10° NNE 03:37:12 66° N 03:37:12 66° N
ALOS 4.5 03:36:35 10° NE 03:40:27 25° E 03:44:19 10° SSE
CZ-4B R/B 4.3 03:37:16 10° NNE 03:40:42 33° E 03:42:15 23° SE
NOSS 3-1 (A) 4.0 03:39:16 48° WNW 03:41:18 61° SW 03:49:38 10° SSE
ADEOS II 4.1 03:39:39 10° N 03:41:04 15° NNW 03:41:04 15° NNW
ATLAS CENTAUR R/B 2.0 03:43:09 55° SSE 03:43:34 58° SE 03:47:57 10° NE
H-2A R/B 3.5 03:41:04 10° NNE 03:45:17 48° E 03:48:34 16° S
MSX 3.7 03:45:03 10° N 03:50:44 64° WNW 03:51:32 57° WSW
Cosmos 1934 Rocket 3.9 03:45:03 10° NNW 03:51:14 61° W 03:57:26 10° S
IDEFIX/ARIANE 42P 3.3 03:46:32 10° N 03:50:26 38° NW 03:50:26 38° NW
STARLINK-1156 4.4 03:55:12 37° ENE 03:55:12 37° ENE 03:57:17 10° ENE
Cosmos 1992 Rocket 4.1 03:55:39 55° SW 03:55:39 55° SW 04:00:05 10° S
STARLINK-1148 4.3 03:57:08 40° ENE 03:57:08 40° ENE 03:59:18 10° ENE
Cosmos 2322 Rocket 4.3 03:56:25 13° NNW 03:57:33 13° NNW 04:00:13 10° NNE
STARLINK-1158 4.2 03:59:03 42° ENE 03:59:03 42° ENE 04:01:18 10° ENE
Cosmos 1356 Rocket 3.5 03:58:21 48° SSE 03:59:21 72° E 04:03:27 10° NNE
Cosmos 2237 Rocket 2.5 04:03:02 44° WNW 04:03:31 45° NW 04:08:56 10° NNE
Cosmos 2251 Rocket 3.5 04:01:11 33° SSW 04:03:37 86° ESE 04:08:58 10° NNE
Cosmos 1455 3.8 04:06:38 23° N 04:06:38 23° N 04:08:16 10° N
Aureole 2 Rocket 3.5 04:05:17 33° NE 04:05:42 36° ENE 04:08:34 10° SE
BREEZE M DEB (TANK) 2.8 04:06:13 61° S 04:06:15 61° S 04:12:00 10° E
COSMO-SKYMED 1 2.8 04:02:23 10° SSE 04:06:42 72° ENE 04:11:03 10° N
Meteor 1-31 Rocket 2.7 04:03:40 10° NNE 04:07:30 82° ESE 04:08:25 51° S
Spot 2 3.8 04:04:43 10° N 04:08:46 67° WNW 04:08:48 67° WNW
Cosmos 921 Rocket 4.0 04:05:03 10° NNW 04:09:24 48° ENE 04:13:40 10° SE
Cosmos 1605 Rocket 3.9 04:05:15 10° NNW 04:11:27 64° W 04:17:31 10° S
PAYLOAD A 4.0 04:06:54 10° N 04:11:37 54° WNW 04:12:26 48° WSW
NOSS 2-1 (C) 3.0 04:12:26 69° S 04:12:45 77° SE 04:16:38 10° NE
Cosmos 2219 Rocket 3.5 04:14:45 22° NW 04:15:15 23° NW 04:19:43 10° NNE
ATLAS 2AS CENTAUR R/B 3.9 04:10:29 15° NW 04:16:29 40° NNE 04:23:25 10° E
NOSS 2-1 (D) 2.9 04:16:24 68° SSW 04:16:48 84° SE 04:20:42 10° NE
GEOS 3 Rocket 3.8 04:12:29 10° NE 04:17:48 74° SE 04:21:26 21° SW
CZ-4B R/B 3.9 04:14:13 10° NNE 04:18:29 80° WNW 04:21:31 20° SSW
Cosmos 2221 2.9 04:18:07 10° S 04:22:20 64° E 04:26:37 10° NNE
Cosmos 1153 Rocket 4.3 04:17:23 10° NNW 04:23:35 77° W 04:29:40 10° S
ADEOS 3.9 04:18:51 10° N 04:23:45 42° WNW 04:25:00 36° W
STARLINK-1170 3.0 04:27:03 55° NE 04:27:03 55° NE 04:29:16 10° E
Cosmos 1869 4.4 04:23:36 10° SSE 04:27:25 46° E 04:31:15 10° NNE
Cosmos-2242 4.2 04:28:38 26° NW 04:28:38 26° NW 04:31:21 10° N
Cosmos 2360 Rocket 4.2 04:26:01 12° NW 04:27:42 13° NNW 04:30:24 10° N
COSMOS 2428 4.1 04:28:27 20° NW 04:29:33 21° NNW 04:33:51 10° NNE
Meteor 2-10 Rocket 3.7 04:27:19 26° SW 04:30:00 49° WNW 04:35:03 10° N
SKYMED 3 4.4 04:26:29 10° S 04:30:49 69° WSW 04:35:10 10° NNW
Cosmos 1943 Rocket 2.2 04:31:14 14° NW 04:35:53 54° WSW 04:41:13 10° S
Cosmos 1238 Rocket 4.3 04:31:28 10° N 04:37:53 64° ENE 04:43:27 10° SSE
Lacrosse 5 2.2 04:38:34 30° W 04:40:33 45° SW 04:45:21 10° SSE
Cosmos 1727 Rocket 3.9 04:34:33 10° SSW 04:40:46 78° WNW 04:46:58 10° N
STARLINK-1162 2.9 04:40:54 50° WNW 04:41:34 73° N 04:44:42 10° E
STARLINK-1157 2.9 04:42:33 48° WNW 04:43:17 73° N 04:46:25 10° E
Cosmos 482 Debris 4.4 04:44:58 22° SSE 04:44:58 22° SSE 04:45:54 10° SE
ADEOS Rocket 3.5 04:38:04 10° SSE 04:44:17 71° ENE 04:51:17 10° NNW
CZ-2C R/B 3.1 04:40:16 10° N 04:45:01 37° WNW 04:47:45 21° WSW
SL-16 R/B 2.4 04:41:35 22° WSW 04:45:11 53° NW 04:50:46 10° NNE
STARLINK-1159 2.9 04:44:29 45° WNW 04:45:18 72° N 04:48:26 10° E
STARLINK-1171 2.9 04:46:21 42° WNW 04:47:14 72° N 04:50:22 10° E
Cosmos 2173 Rocket 4.0 04:41:39 10° NNW 04:48:01 84° W 04:54:15 10° S
STARLINK-1179 2.4 04:47:55 56° NW 04:48:15 67° N 04:50:49 10° E
STARLINK-1176 2.4 04:48:29 55° NW 04:48:50 67° N 04:51:24 10° E
STARLINK-1155 2.9 04:48:08 40° WNW 04:49:06 72° N 04:52:14 10° E
STARLINK-1153 2.7 04:49:50 42° WNW 04:50:39 70° N 04:53:35 10° E
STARLINK-1180 2.7 04:50:03 42° WNW 04:50:52 70° N 04:53:49 10° E
STARLINK-1166 2.9 04:50:07 38° WNW 04:51:10 72° N 04:54:18 10° E
STARLINK-1174 2.7 04:50:31 41° WNW 04:51:21 70° N 04:54:17 10° E
STARLINK-1139 2.7 04:50:44 41° WNW 04:51:35 70° N 04:54:30 10° E
STARLINK-1133 2.7 04:50:55 41° WNW 04:51:46 70° N 04:54:43 10° E
STARLINK-1151 2.7 04:51:10 40° WNW 04:52:02 70° N 04:54:58 10° E
STARLINK-1160 2.7 04:51:48 40° WNW 04:52:42 70° N 04:55:36 10° E
Cosmos 1805 Rocket 3.5 04:48:30 10° N 04:52:52 90° E 04:57:12 10° S
STARLINK-1161 2.7 04:52:01 39° WNW 04:52:54 70° N 04:55:50 10° E
STARLINK-1165 2.9 04:51:54 36° WNW 04:53:02 72° N 04:56:10 10° E
STARLINK-1145 2.7 04:52:14 39° WNW 04:53:09 70° N 04:56:04 10° E
STARLINK-1172 2.7 04:52:25 39° WNW 04:53:21 70° N 04:56:16 10° E
STARLINK-1182 2.7 04:52:54 38° WNW 04:53:50 70° N 04:56:45 10° E
STARLINK-1164 2.7 04:53:06 38° WNW 04:54:03 70° N 04:56:58 10° E
STARLINK-1168 2.7 04:53:18 38° WNW 04:54:15 70° N 04:57:11 10° E
Cosmos 407 Rocket 3.9 04:49:03 10° SSW 04:54:21 69° ESE 04:59:37 10° NNE
TELKOM 3 3.3 04:54:11 41° SSW 04:54:25 44° S 04:56:28 10° E
SKYMED 2 3.9 04:50:49 10° S 04:54:55 41° W 04:59:04 10° NNW
STARLINK-1183 2.7 04:53:58 37° WNW 04:54:56 70° N 04:57:52 10° E
STARLINK-1169 2.9 04:53:45 34° WNW 04:54:57 72° N 04:58:06 10° E
STARLINK-1181 2.7 04:54:10 37° WNW 04:55:09 70° N 04:58:05 10° E
FENGYUN 3A 3.6 04:50:01 10° NNE 04:55:29 84° WNW 05:00:56 10° SSW
STARLINK-1196 2.7 04:54:49 36° WNW 04:55:50 70° N 04:58:46 10° E
STARLINK-1186 2.7 04:55:16 35° WNW 04:56:17 70° N 04:59:13 10° E
Cosmos 2369 Rocket 2.4 04:50:53 10° NW 04:56:22 49° WSW 05:01:50 10° S
STARLINK-1185 2.7 04:55:29 35° WNW 04:56:31 70° N 04:59:27 10° E
COSMOS 2455 4.4 04:51:21 10° NNW 04:56:33 29° NNE 05:01:46 10° E
STARLINK-1175 2.7 04:55:42 35° WNW 04:56:44 70° N 04:59:41 10° E
Cosmos 1862 3.7 04:52:51 10° N 04:56:50 65° ENE 05:00:46 10° SSE
STARLINK-1178 2.9 04:55:35 32° WNW 04:56:51 72° N 05:00:01 10° E
STARLINK-1147 2.7 04:55:54 35° WNW 04:56:57 70° N 04:59:53 10° E
STARLINK-1146 2.7 04:56:06 34° WNW 04:57:11 70° N 05:00:07 10° E
STARLINK-1152 2.7 04:56:20 34° WNW 04:57:24 70° N 05:00:20 10° E
STARLINK-1195 2.7 04:56:33 34° WNW 04:57:38 70° N 05:00:34 10° E
SL-16 R/B 4.5 04:56:05 10° NNW 04:57:42 11° N 04:59:20 10° NNE
STARLINK-1137 2.7 04:56:47 34° WNW 04:57:53 70° N 05:00:49 10° E
STARLINK-1142 2.7 04:57:00 34° WNW 04:58:06 70° N 05:01:02 10° E
STARLINK-1127 2.7 04:57:12 33° WNW 04:58:19 70° N 05:01:14 10° E
STARLINK-1184 2.7 04:57:26 33° WNW 04:58:33 70° N 05:01:29 10° E
STARLINK-1120 2.9 04:57:20 31° WNW 04:58:42 72° N 05:01:51 10° E
STARLINK-1193 2.7 04:57:39 33° WNW 04:58:46 70° N 05:01:42 10° E
STARLINK-1194 2.7 04:57:51 33° WNW 04:58:59 70° N 05:01:55 10° E
Sich 1 3.1 04:55:51 10° N 05:00:09 80° E 05:04:27 10° SSE
Cosmos 2100 Rocket 3.9 04:54:01 10° NNW 05:00:12 66° W 05:06:18 10° S
Cosmos 1500 Rocket 4.0 04:56:24 10° NNW 05:00:34 39° W 05:04:39 10° SSW
STARLINK-1131 2.9 04:59:19 29° W 05:00:45 71° N 05:03:54 10° E
Okean O Rocket 2.2 04:56:37 10° NNE 05:01:00 60° ESE 05:05:17 10° S
CZ-4B DEB 4.2 04:55:29 10° NNE 05:01:01 86° ESE 05:06:30 10° SSW
Cosmos 1603 3.9 04:55:29 10° SSW 05:01:12 77° ESE 05:06:54 10° NNE
Cosmos 1140 Rocket 4.2 04:56:11 10° S 05:01:18 58° ESE 05:06:28 10° NNE
USA 215 3.6 04:55:34 10° E 05:01:59 59° N 05:07:21 15° WNW
Cosmos 1238 4.0 04:58:59 10° SSW 05:01:59 75° W 05:05:07 10° N
STARLINK-1190 2.9 05:01:09 28° W 05:02:40 72° N 05:05:49 10° E
NOSS 2-1 (E) 3.5 05:01:58 23° W 05:03:55 48° NW 05:07:56 10° NE
Meteor 2-3 Rocket 4.3 04:59:15 10° NNW 05:04:24 35° W 05:09:33 10° SSW
Cosmos 2263 4.3 05:00:31 10° NW 05:06:05 55° WSW 05:11:34 10° S
Cosmos 2061 Rocket 4.0 05:01:43 10° NNW 05:08:04 83° W 05:14:18 10° S
Cosmos 1943 3.5 05:02:49 10° SSW 05:08:23 70° ESE 05:14:01 10° NE
Meteor PRIRODA 4.2 05:05:38 10° N 05:09:04 35° WNW 05:12:27 10° SW
Cosmos 1743 Rocket 4.3 05:08:13 10° NNW 05:11:55 28° W 05:15:37 10° SSW
CZ-4B R/B 3.4 05:07:23 10° NNE 05:12:45 72° ESE 05:18:02 10° S
Cosmos 1484 Rocket 3.5 05:10:47 10° N 05:14:16 31° WNW 05:17:47 10° SW
Cosmos 1000 Rocket 4.4 05:09:22 10° SSW 05:15:32 77° WNW 05:21:49 10° N
CZ-4B R/B 3.7 05:12:36 10° N 05:15:43 25° WNW 05:18:23 12° WSW
Cosmos 1190 Rocket 4.1 05:11:00 10° SSW 05:16:17 86° ESE 05:21:38 10° NNE
Cosmos 2333 Rocket 4.1 05:13:53 10° NW 05:16:56 14° NNW 05:19:59 10° NNE
ALOS 2.5 05:13:37 10° N 05:18:08 49° WNW 05:22:37 10° SW
STARLINK-1149 2.5 05:17:26 21° WNW 05:19:03 71° N 05:21:42 10° E
CZ-4C R/B 3.3 05:14:51 15° WNW 05:19:08 34° NNW 05:25:18 10° NE
Cosmos 1459 Rocket 4.1 05:13:33 10° NNW 05:19:30 52° W 05:25:29 10° SSW
STARLINK-1129 3.0 05:17:57 18° W 05:20:12 73° N 05:23:24 10° E
H-2A R/B 3.6 05:16:59 10° N 05:20:33 25° WNW 05:24:09 10° WSW
STARLINK-1134 3.0 05:19:36 17° W 05:21:55 74° N 05:25:07 10° E
STARLINK-1132 2.5 05:20:13 19° WNW 05:22:01 72° N 05:24:42 10° E
ATLAS CENTAUR R/B 2.4 05:19:22 14° W 05:22:45 34° NNW 05:26:44 10° NNE
Cosmos 1656 Rocket 3.8 05:17:20 10° NW 05:22:56 61° WSW 05:28:32 10° SSE
STARLINK-1135 3.0 05:21:47 16° W 05:24:11 74° N 05:27:23 10° E
Meteor 2-2 Rocket 4.4 05:18:44 10° SSW 05:24:42 63° WNW 05:30:43 10° N
STARLINK-1150 2.5 05:23:03 17° WNW 05:24:57 73° N 05:27:39 10° E
Cosmos 1725 Rocket 4.0 05:19:21 10° NNW 05:25:37 79° W 05:31:54 10° S
Cosmos 1346 Rocket 3.9 05:22:07 10° N 05:25:56 45° ENE 05:29:41 10° SSE
STARLINK-1163 2.5 05:24:05 17° WNW 05:26:02 74° N 05:28:44 10° E
STARLINK-1141 3.0 05:23:49 16° W 05:26:19 74° N 05:29:30 10° E
PSLV R/B 4.4 05:23:09 10° N 05:26:31 33° WNW 05:29:54 10° SW
STARLINK-1173 2.5 05:25:53 16° WNW 05:27:55 74° N 05:30:37 10° E
STARLINK-1140 3.0 05:25:39 15° W 05:28:13 75° N 05:31:25 10° E
STARLINK-1177 2.5 05:26:26 16° WNW 05:28:30 75° N 05:31:13 10° E
Cosmos 614 Rocket 4.0 05:23:50 10° SW 05:28:57 62° WNW 05:34:08 10° NNE
STARLINK-1167 2.5 05:27:50 15° WNW 05:29:57 75° N 05:32:41 10° E
Cosmos 468 Rocket 4.5 05:24:45 10° NNW 05:30:05 67° ENE 05:35:21 10° SE
STARLINK-1156 3.0 05:27:35 14° W 05:30:14 75° N 05:33:26 10° E
Cosmos 2123 Rocket 4.1 05:25:47 10° S 05:32:07 90° E 05:38:28 10° N
STARLINK-1148 3.0 05:29:31 14° W 05:32:15 76° N 05:35:27 10° E
Cosmos 1802 Rocket 4.2 05:26:34 10° NNW 05:32:46 52° W 05:38:56 10° SSW
Cosmos 1633 3.4 05:30:03 10° NNW 05:33:15 29° W 05:36:26 10° SSW
Cosmos 676 Rocket 4.3 05:28:01 10° SSW 05:33:20 76° ESE 05:38:41 10° NNE
NOSS 3-4 (A) 4.3 05:26:47 10° NW 05:33:23 56° NNE 05:40:41 10° ESE
PAYLOAD B 4.3 05:27:51 10° NNE 05:33:24 65° WNW 05:38:54 10° SSW
NOSS 3-4 (C) 4.4 05:26:52 10° NW 05:33:29 56° NNE 05:40:47 10° ESE
STARLINK-1158 3.0 05:31:27 13° W 05:34:16 76° N 05:37:28 10° E
Cosmos 1151 Rocket 4.1 05:30:43 10° S 05:34:54 51° E 05:39:08 10° NNE
STARLINK-1136 2.5 05:32:38 13° WNW 05:34:56 77° N 05:37:38 10° E
CZ-2C R/B 4.3 05:32:12 10° SSE 05:36:32 59° ENE 05:40:56 10° N
Aureole 2 Rocket 3.8 05:37:36 11° WNW 05:39:22 16° WSW 05:41:18 10° SW
NOAA 6 4.1 05:35:39 10° N 05:40:47 63° WNW 05:45:53 10° SSW
COSMO-SKYMED 1 4.1 05:40:43 10° SW 05:43:22 16° W 05:46:03 10° NW
Cosmos 2322 Rocket 4.4 05:42:07 10° NNW 05:44:22 12° NNE 05:46:36 10° NE
Cosmos 1315 Rocket 4.2 05:43:38 10° SSE 05:47:24 43° E 05:51:09 10° NNE
Cosmos 921 Rocket 4.2 05:43:51 10° NW 05:47:25 24° W 05:50:55 10° SSW
Cosmos 1340 2.6 05:44:30 10° NNW 05:48:17 85° WSW 05:52:02 10° S
Cosmos 1633 Rocket 3.1 05:44:33 10° NNW 05:48:52 58° W 05:53:09 10° S
Okean-O 4.3 05:44:51 10° NNE 05:49:03 39° E 05:53:13 10° SSE
Cosmos 2237 Rocket 3.9 05:45:40 10° WNW 05:49:05 16° NNW 05:52:30 10° NNE
Cosmos 1666 Rocket 3.8 05:45:15 10° NNW 05:49:34 48° W 05:53:48 10° SSW
Cosmos 1933 Rocket 4.1 05:45:46 10° N 05:50:07 64° ENE 05:54:26 10° SSE
YAOGAN 6 3.9 05:46:55 10° NNE 05:50:19 44° E 05:53:42 10° S
GEOS 3 Rocket 4.3 05:50:46 10° NE 05:55:37 38° NNW 06:00:30 10° W
